Tracking 28888 objects as of 22-May-2024
HD Live streaming from Space Station
objects crossing your sky now

IRIDIUM 121

Track IRIDIUM 121 now!
10-day predictions
IRIDIUM 121 is classified as:


NORAD ID: 42812
Int'l Code: 2017-039K
Perigee: 783.3 km
Apogee: 786.3 km
Inclination: 86.4 °
Period: 100.4 minutes
Semi major axis: 7155 km
RCS: Unknown
Launch date: June 25, 2017
Source: United States (US)
Launch site: AIR FORCE WESTERN TEST RANGE (AFWTR)
Your satellite tracking list
Your tracking list is empty




NASA's NSSDC Master Catalog

Two Line Element Set (TLE):
1 42812U 17039K   24142.94669650  .00000635  00000-0  21958-3 0  9997
2 42812  86.3937 309.7000 0002078  89.6429 270.5005 14.34215328361438
Source of the keplerian elements: AFSPC